(2021 AS2) |
Classification: Apollo [NEO] SPK-ID: 54104849 |
[ hide orbit diagram ]
For accurate long-term ephemerides, please instead use our Horizons system.This orbit viewer was implemented using two-body methods, and hence should not be used for determining accurate long-term trajectories (over several years or decades) or planetary encounter circumstances.
Orbital Elements at Epoch 2459223.5 (2021-Jan-09.0) TDB
Reference: JPL 2 (heliocentric ecliptic J2000)
Element | Value | Uncertainty (1-sigma) | Units |
e | .779627056242608 | 0.00060908 | |
a | 2.291396350490767 | 0.0053814 | au |
q | .5049617590725951 | 0.00021018 | au |
i | .8285886546427536 | 0.000755 | deg |
node | 108.640405039045 | 6.0663e-05 | deg |
peri | 96.80182043480602 | 0.0015867 | deg |
M | 347.3814294773759 | 0.050173 | deg |
tp | 2459267.907508840292 (2021-Feb-22.40750884) | 0.020132 | TDB |
period | 1266.918717444443 3.47 | 4.4631 0.01222 | d yr |
n | .2841539832375132 | 0.001001 | deg/d |
Q | 4.077830941908939 | 0.009577 | au |
|
| | Orbit Determination Parameters
Additional Information
|
[ show covariance matrix ]
Physical Parameter Table
Parameter |
Symbol |
Value |
Units |
Sigma |
Reference |
Notes |
absolute magnitude |
H |
29.51 |
|
.37699 |
E2021D54 |
autocmod 2.8 |
|
[ show close-approach data ]
|